Simultaneous Nadir Overpasses (SNOs) Predictions

Prediction of SNOs between LANDSAT-8 and NPP Satellite Orbit:

Table of predicted SNOs for the next 14.0 days since TLE Epoch: 12/17/2016
Index Date (LANDSAT-8) Time (LANDSAT-8) Lat,Lon (LANDSAT-8) SZA (LANDSAT-8 ) Date (NPP) Time (NPP) Lat,Lon (NPP) SZA (NPP ) Distance(km) Time Diff (sec)
1 12/18/2016 14:42:11 -70.11, 135.95 86.58 12/18/2016 14:41:27 -70.14, 135.95 86.55 3.32 44
2 12/18/2016 15:31:38 70.01, -56.55 93.32 12/18/2016 15:32:10 69.98, -56.50 93.30 3.15 32
3 12/21/2016 06:08:58 70.77, 85.18 94.11 12/21/2016 06:07:49 70.79, 83.36 94.17 66.34 69
4 12/21/2016 06:58:38 -70.11,-108.16 86.54 12/21/2016 06:58:20 -70.11,-108.24 86.54 2.79 18
5 12/21/2016 07:48:06 69.95, 59.25 93.30 12/21/2016 07:49:03 69.96, 59.31 93.31 2.21 57
6 12/23/2016 22:25:37 70.16,-159.84 93.49 12/23/2016 22:24:31 70.14,-159.82 93.48 2.48 66
7 12/23/2016 23:15:07 -70.05, 7.64 86.62 12/23/2016 23:15:13 -70.03, 7.65 86.64 2.07 6
8 12/24/2016 00:04:40 69.61, 174.67 92.95 12/24/2016 00:05:51 69.61, 175.59 92.94 35.56 71
9 12/26/2016 14:42:06 70.09, -44.06 93.35 12/26/2016 14:41:25 70.11, -44.02 93.38 3.26 41
10 12/26/2016 15:31:36 -69.98, 123.43 86.76 12/26/2016 15:32:07 -70.01, 123.46 86.74 3.02 31
11 12/29/2016 06:08:56 -70.79, -94.79 86.10 12/29/2016 06:07:47 -70.82, -96.68 86.02 69.05 69
12 12/29/2016 06:58:34 70.07, 71.80 93.20 12/29/2016 06:58:19 70.09, 71.79 93.23 2.72 15
13 12/29/2016 07:48:04 -69.97,-120.71
